Fort Meade, MD

3:57 PM EDT on April 25, 2017 (GMT -0400)
Tipton

Weather History for KFME - July, 2013

Change the Weather History Date:

Thursday, July 18, 2013

  Actual Average (KBWI) Record (KBWI)
Temperature  
Mean Temperature 82 °F -  
Max Temperature 95 °F 90 °F 104 °F (2012)
Min Temperature 69 °F 67 °F 57 °F (2014)
Cooling Degree Days 17    
Growing Degree Days 32 (Base 50)    
Moisture  
Dew Point 72 °F    
Average Humidity 77    
Maximum Humidity 100    
Minimum Humidity 47    
Precipitation  
Precipitation 0.00 in - - ()
Sea Level Pressure  
Sea Level Pressure 30.08 in    
Wind  
Wind Speed 1 mph (SW)    
Max Wind Speed 8 mph    
Max Gust Speed -    
Visibility 7 miles    
Events      
Averages and records for this station are not official NWS values.
T = Trace of Precipitation, MM = Missing Value Source: NWS Daily Summary

Daily Weather History Graph

Daily Weather History Graph

Search for Another Location

Airport or City:

Trip Planner

Search our weather history database for the weather conditions in past years. The results will help you decide how hot, cold, wet, or windy it might be!

Date:

Astronomy

Jul. 18, 2013 Rise Set
Actual Time 5:55 AM EDT 8:30 PM EDT
Civil Twilight 5:24 AM EDT 9:01 PM EDT
Nautical Twilight 4:46 AM EDT 9:39 PM EDT
Astronomical Twilight 4:03 AM EDT 10:22 PM EDT
Moon 4:24 PM EDT (7/18) 1:44 AM EDT (7/18)
Length of Visible Light 15h 36m
Length of Day
14h 34m
Waxing Gibbous, 77% of the Moon is Illuminated
Jul 18
Waxing Gibbous
Jul 22
Full
Jul 29
Last Quarter
Aug 6
New
Aug 14
First Quarter

Hourly Weather History & Observations

Time (EDT) Temp. Heat Index Dew Point Humidity Pressure Visibility Wind Dir Wind Speed Gust Speed Precip Events Conditions
12:09 AM 73.4 °F - 71.6 °F 94% 30.15 in 3.0 mi Calm Calm - N/A   Clear
12:30 AM 71.6 °F - 69.8 °F 94% 30.14 in 3.0 mi Calm Calm - N/A   Clear
12:51 AM 71.6 °F - 69.8 °F 94% 30.14 in 2.5 mi Calm Calm - N/A   Clear
1:09 AM 71.6 °F - 69.8 °F 94% 30.13 in 3.0 mi Calm Calm - N/A   Clear
1:30 AM 71.6 °F - 69.8 °F 94% 30.13 in 3.0 mi Calm Calm - N/A   Clear
1:51 AM 71.6 °F - 69.8 °F 94% 30.13 in 2.5 mi Calm Calm - N/A   Clear
2:09 AM 71.6 °F - 69.8 °F 94% 30.12 in 2.5 mi Calm Calm - N/A   Clear
2:30 AM 71.6 °F - 69.8 °F 94% 30.12 in 3.0 mi Calm Calm - N/A   Clear
2:51 AM 71.6 °F - 69.8 °F 94% 30.11 in 3.0 mi Calm Calm - N/A   Clear
3:12 AM 71.6 °F - 69.8 °F 94% 30.11 in 3.0 mi Calm Calm - N/A   Clear
3:30 AM 71.6 °F - 69.8 °F 94% 30.11 in 2.5 mi Calm Calm - N/A   Clear
3:51 AM 71.6 °F - 69.8 °F 94% 30.11 in 2.5 mi Calm Calm - N/A   Clear
4:12 AM 69.8 °F - 68.0 °F 94% 30.10 in 2.5 mi Calm Calm - N/A   Clear
4:30 AM 71.6 °F - 69.8 °F 94% 30.11 in 3.0 mi Calm Calm - N/A   Clear
4:51 AM 69.8 °F - 69.8 °F 100% 30.11 in 2.5 mi Calm Calm - N/A   Clear
5:12 AM 69.8 °F - 69.8 °F 100% 30.10 in 3.0 mi Calm Calm - N/A   Clear
5:30 AM 69.8 °F - 68.0 °F 94% 30.11 in 2.5 mi West 3.5 mph - N/A   Clear
5:51 AM 69.8 °F - 68.0 °F 94% 30.11 in 2.0 mi Calm Calm - N/A   Clear
6:12 AM 69.8 °F - 68.0 °F 94% 30.11 in 1.8 mi Calm Calm - N/A   Unknown
6:30 AM 69.8 °F - 69.8 °F 100% 30.11 in 2.0 mi Calm Calm - N/A   Clear
6:51 AM 71.6 °F - 69.8 °F 94% 30.11 in 2.5 mi Calm Calm - N/A   Clear
7:12 AM 71.6 °F - 69.8 °F 94% 30.12 in 3.0 mi Calm Calm - N/A   Clear
7:30 AM 73.4 °F - 71.6 °F 94% 30.12 in 5.0 mi Calm Calm - N/A   Clear
7:51 AM 77.0 °F - 73.4 °F 89% 30.12 in 7.0 mi Calm Calm - N/A   Clear
8:12 AM 78.8 °F - 73.4 °F 83% 30.12 in 7.0 mi Calm Calm - N/A   Clear
8:30 AM 82.4 °F 88.2 °F 73.4 °F 74% 30.12 in 10.0 mi NW 3.5 mph - N/A   Clear
9:12 AM 86.0 °F 93.4 °F 73.4 °F 66% 30.13 in 10.0 mi NNE 4.6 mph - N/A   Clear
9:30 AM 86.0 °F 91.8 °F 71.6 °F 62% 30.13 in 10.0 mi NE 5.8 mph - N/A   Clear
10:12 AM 87.8 °F 93.8 °F 71.6 °F 58% 30.12 in 10.0 mi North 3.5 mph - N/A   Clear
11:12 AM 89.6 °F 98.2 °F 73.4 °F 59% 30.12 in 10.0 mi Calm Calm - N/A   Clear
11:33 AM 89.6 °F 98.2 °F 73.4 °F 59% 30.12 in 10.0 mi Calm Calm - N/A   Clear
11:51 AM 89.6 °F 96.2 °F 71.6 °F 55% 30.11 in 10.0 mi North 3.5 mph - N/A   Clear
12:12 PM 89.6 °F 96.2 °F 71.6 °F 55% 30.11 in 10.0 mi West 3.5 mph - N/A   Scattered Clouds
12:33 PM 89.6 °F 96.2 °F 71.6 °F 55% 30.11 in 10.0 mi NNW 3.5 mph - N/A   Scattered Clouds
12:51 PM 91.4 °F 98.4 °F 71.6 °F 52% 30.11 in 10.0 mi NE 3.5 mph - N/A   Clear
1:12 PM 91.4 °F 100.1 °F 73.4 °F 55% 30.10 in 10.0 mi SSW 4.6 mph - N/A   Scattered Clouds
1:33 PM 91.4 °F 100.1 °F 73.4 °F 55% 30.10 in 10.0 mi SW 3.5 mph - N/A   Scattered Clouds
1:51 PM 93.2 °F 102.4 °F 73.4 °F 52% 30.09 in 10.0 mi SW 5.8 mph - N/A   Scattered Clouds
2:12 PM 93.2 °F 105.0 °F 75.2 °F 56% 30.08 in 10.0 mi WSW 5.8 mph - N/A   Scattered Clouds
2:33 PM 93.2 °F 102.4 °F 73.4 °F 52% 30.08 in 10.0 mi South 6.9 mph - N/A   Scattered Clouds
2:51 PM 91.4 °F 98.4 °F 71.6 °F 52% 30.07 in 10.0 mi South 3.5 mph - N/A   Clear
3:12 PM 95.0 °F 103.2 °F 71.6 °F 47% 30.06 in 10.0 mi SW 5.8 mph - N/A   Clear
3:33 PM 93.2 °F 100.5 °F 71.6 °F 49% 30.06 in 10.0 mi SSW 8.1 mph - N/A   Clear
3:51 PM 93.2 °F 100.5 °F 71.6 °F 49% 30.05 in 10.0 mi SW 8.1 mph - N/A   Scattered Clouds
4:12 PM 93.2 °F 100.5 °F 71.6 °F 49% 30.04 in 10.0 mi Calm Calm - N/A   Scattered Clouds
4:33 PM 91.4 °F 100.1 °F 73.4 °F 55% 30.04 in 10.0 mi SSW 6.9 mph - N/A   Scattered Clouds
4:51 PM 91.4 °F 98.4 °F 71.6 °F 52% 30.04 in 10.0 mi SSW 5.8 mph - N/A   Scattered Clouds
5:12 PM 91.4 °F 100.1 °F 73.4 °F 55% 30.03 in 10.0 mi SSW 4.6 mph - N/A   Clear
5:33 PM 89.6 °F 99.8 °F 75.2 °F 62% 30.02 in 10.0 mi South 4.6 mph - N/A   Scattered Clouds
5:51 PM 89.6 °F 102.2 °F 77.0 °F 66% 30.02 in 10.0 mi SSW 6.9 mph - N/A   Mostly Cloudy
6:12 PM 89.6 °F 98.2 °F 73.4 °F 59% 30.02 in 10.0 mi South 5.8 mph - N/A   Scattered Clouds
6:33 PM 89.6 °F 102.2 °F 77.0 °F 66% 30.02 in 10.0 mi SW 6.9 mph - N/A   Scattered Clouds
6:51 PM 87.8 °F 99.7 °F 77.0 °F 70% 30.04 in 10.0 mi WSW 4.6 mph - N/A   Scattered Clouds
7:12 PM 86.0 °F 96.9 °F 77.0 °F 74% 30.04 in 10.0 mi WSW 3.5 mph - N/A   Clear
7:33 PM 84.2 °F 94.1 °F 77.0 °F 79% 30.04 in 10.0 mi Calm Calm - N/A   Clear
7:51 PM 82.4 °F 90.9 °F 77.0 °F 84% 30.04 in 10.0 mi WSW 3.5 mph - N/A   Clear
8:12 PM 82.4 °F 90.9 °F 77.0 °F 84% 30.05 in 10.0 mi SW 4.6 mph - N/A   Clear
8:33 PM 80.6 °F 87.1 °F 77.0 °F 89% 30.05 in 10.0 mi Calm Calm - N/A   Clear
8:54 PM 80.6 °F 86.2 °F 75.2 °F 84% 30.04 in 10.0 mi Calm Calm - N/A   Clear
9:12 PM 80.6 °F 86.2 °F 75.2 °F 84% 30.04 in 10.0 mi Calm Calm - N/A   Clear
9:33 PM 78.8 °F - 73.4 °F 83% 30.04 in 7.0 mi Calm Calm - N/A   Clear
9:54 PM 78.8 °F - 73.4 °F 83% 30.04 in 7.0 mi Calm Calm - N/A   Clear
10:12 PM 78.8 °F - 73.4 °F 83% 30.05 in 7.0 mi Calm Calm - N/A   Clear
10:33 PM 77.0 °F - 73.4 °F 89% 30.05 in 7.0 mi Calm Calm - N/A   Clear
10:54 PM 77.0 °F - 73.4 °F 89% 30.04 in 5.0 mi Calm Calm - N/A   Clear
11:12 PM 77.0 °F - 73.4 °F 89% 30.04 in 5.0 mi Calm Calm - N/A   Clear
11:33 PM 77.0 °F - 73.4 °F 89% 30.04 in 5.0 mi Calm Calm - N/A   Clear
11:54 PM 77.0 °F - 73.4 °F 89% 30.04 in 5.0 mi Calm Calm - N/A   Clear